EW8881 Weather Reports


time (UTC)temp
C
wind
direction
speed
KPH
gust
KPH
rain 1hr
cm
rain 24hr
cm
rain mn
cm
humidity
%
barometer
mb
20260906230707 38 8 0.0 9.7 0.00 0.00 0.00 37 1009.9
20260906230207 38 338 1.6 9.7 0.00 0.00 0.00 37 1009.8
20260906225706 38 64 1.6 9.7 0.00 0.00 0.00 36 1009.9
20260906225208 38 204 0.0 4.8 0.00 0.00 0.00 37 1009.9
20260906224707 38 351 0.0 1.6 0.00 0.00 0.00 37 1009.8
20260906224208 38 65 0.0 1.6 0.00 0.00 0.00 36 1009.8
20260906223710 38 22 0.0 4.8 0.00 0.00 0.00 37 1009.9
20260906223705 38 233 0.0 4.8 0.00 0.00 0.00 37 1010.0
20260906222705 38 57 0.0 1.6 0.00 0.00 0.00 37 1010.0
20260906222204 38 44 0.0 4.8 0.00 0.00 0.00 36 1010.0
20260906221707 38 290 1.6 11.3 0.00 0.00 0.00 37 1010.1
20260906221703 38 338 0.0 4.8 0.00 0.00 0.00 36 1010.0
20260906220704 38 299 1.6 11.3 0.00 0.00 0.00 37 1010.0
20260906220203 38 39 0.0 9.7 0.00 0.00 0.00 38 1010.1
20260906220159 38 221 0.0 3.2 0.00 0.00 0.00 38 1010.0
20260906215200 38 285 0.0 3.2 0.00 0.00 0.00 38 1010.2
20260906214700 38 271 0.0 1.6 0.00 0.00 0.00 39 1010.2
20260906214159 37 70 0.0 3.2 0.00 0.00 0.00 40 1010.3
20260906213700 37 210 0.0 3.2 0.00 0.00 0.00 38 1010.4
20260906213200 37 290 0.0 1.6 0.00 0.00 0.00 40 1010.4
20260906212658 37 339 0.0 3.2 0.00 0.00 0.00 39 1010.5
20260906212201 38 58 0.0 6.4 0.00 0.00 0.00 39 1010.6
20260906212157 38 207 0.0 6.4 0.00 0.00 0.00 38 1010.7
20260906211157 38 75 0.0 6.4 0.00 0.00 0.00 40 1010.7
20260906210657 37 290 0.0 6.4 0.00 0.00 0.00 40 1010.7
20260906210156 37 330 0.0 6.4 0.00 0.00 0.00 39 1011.0
20260906205656 38 34 0.0 4.8 0.00 0.00 0.00 38 1011.0
20260906205158 38 1 0.0 4.8 0.00 0.00 0.00 37 1011.0
20260906205154 38 238 0.0 3.2 0.00 0.00 0.00 39 1011.1
20260906204153 38 4 0.0 4.8 0.00 0.00 0.00 38 1011.1
20260906203654 38 80 0.0 4.8 0.00 0.00 0.00 39 1011.2
20260906203151 38 335 0.0 6.4 0.00 0.00 0.00 39 1011.2
20260906202651 38 17 0.0 6.4 0.00 0.00 0.00 40 1011.2
20260906202156 37 70 0.0 6.4 0.00 0.00 0.00 40 1011.4
20260906202151 37 240 0.0 6.4 0.00 0.00 0.00 40 1011.4
20260906201148 37 284 1.6 17.7 0.00 0.00 0.00 41 1011.4
20260906200649 37 284 1.6 17.7 0.00 0.00 0.00 40 1011.4
20260906200150 37 224 0.0 8.0 0.00 0.00 0.00 39 1011.5
20260906195649 38 345 0.0 1.6 0.00 0.00 0.00 40 1011.5
20260906195153 38 165 1.6 8.0 0.00 0.00 0.00 41 1011.6
20260906195148 37 282 1.6 8.0 0.00 0.00 0.00 40 1011.7
20260906194146 37 53 1.6 8.0 0.00 0.00 0.00 41 1011.7
20260906193644 38 19 0.0 6.4 0.00 0.00 0.00 40 1011.7
20260906193145 37 120 0.0 9.7 0.00 0.00 0.00 42 1011.8
20260906192643 37 88 0.0 9.7 0.00 0.00 0.00 40 1011.8
20260906192142 37 246 0.0 8.0 0.00 0.00 0.00 43 1011.9
20260906191647 37 93 0.0 8.0 0.00 0.00 0.00 41 1012.1
20260906191642 37 226 0.0 6.4 0.00 0.00 0.00 41 1012.1
20260906190640 37 37 1.6 11.3 0.00 0.00 0.00 43 1012.1
20260906190138 37 54 1.6 11.3 0.00 0.00 0.00 42 1012.1
20260906185638 37 341 1.6 8.0 0.00 0.00 0.00 43 1012.2
20260906185140 37 311 0.0 6.4 0.00 0.00 0.00 44 1012.3
20260906184638 37 215 0.0 6.4 0.00 0.00 0.00 43 1012.2
20260906184138 37 227 0.0 6.4 0.00 0.00 0.00 43 1012.2
20260906183641 37 297 0.0 8.0 0.00 0.00 0.00 44 1012.3
20260906183140 37 213 1.6 8.0 0.00 0.00 0.00 44 1012.4
20260906182641 37 30 0.0 8.0 0.00 0.00 0.00 43 1012.4
20260906182139 37 33 0.0 8.0 0.00 0.00 0.00 44 1012.5
20260906181638 37 250 0.0 1.6 0.00 0.00 0.00 46 1012.6
20260906181136 36 25 1.6 9.7 0.00 0.00 0.00 47 1012.7
20260906180637 36 32 1.6 9.7 0.00 0.00 0.00 44 1012.8
20260906180137 37 359 0.0 8.0 0.00 0.00 0.00 44 1012.9
20260906175636 37 39 0.0 4.8 0.00 0.00 0.00 44 1012.9
20260906175136 37 250 0.0 4.8 0.00 0.00 0.00 46 1013.1
20260906174635 37 199 0.0 6.4 0.00 0.00 0.00 47 1013.1
20260906174136 37 348 0.0 6.4 0.00 0.00 0.00 45 1013.2
20260906173640 37 206 0.0 4.8 0.00 0.00 0.00 46 1013.3
20260906173635 37 51 0.0 4.8 0.00 0.00 0.00 45 1013.2
20260906172635 36 330 0.0 6.4 0.00 0.00 0.00 45 1013.5
20260906172135 36 356 1.6 6.4 0.00 0.00 0.00 46 1013.5
20260906171641 36 242 0.0 3.2 0.00 0.00 0.00 47 1013.6
20260906171637 36 4 0.0 3.2 0.00 0.00 0.00 47 1013.6
20260906170635 36 235 1.6 8.0 0.00 0.00 0.00 49 1013.6
20260906170136 36 165 1.6 8.0 0.00 0.00 0.00 48 1013.7
20260906165636 36 167 0.0 6.4 0.00 0.00 0.00 48 1013.8
20260906165135 36 61 0.0 1.6 0.00 0.00 0.00 47 1013.8
20260906164635 36 298 0.0 6.4 0.00 0.00 0.00 50 1013.9
20260906164135 36 349 1.6 8.0 0.00 0.00 0.00 49 1013.9
20260906163635 35 224 0.0 8.0 0.00 0.00 0.00 51 1013.9
20260906163136 35 8 0.0 4.8 0.00 0.00 0.00 50 1013.9
20260906162637 35 30 0.0 4.8 0.00 0.00 0.00 51 1013.8
20260906162136 35 349 0.0 4.8 0.00 0.00 0.00 50 1013.9
20260906161641 35 359 0.0 4.8 0.00 0.00 0.00 54 1013.9
20260906161636 35 234 0.0 4.8 0.00 0.00 0.00 51 1013.9
20260906160636 35 47 0.0 4.8 0.00 0.00 0.00 54 1013.9
20260906160137 35 63 0.0 1.6 0.00 0.00 0.00 54 1013.9
20260906155636 35 17 0.0 3.2 0.00 0.00 0.00 56 1013.9
20260906155135 35 345 0.0 3.2 0.00 0.00 0.00 52 1013.9
20260906154636 35 334 0.0 0.0 0.00 0.00 0.00 54 1013.9
20260906154134 35 321 0.0 1.6 0.00 0.00 0.00 57 1014.0
20260906153634 34 38 0.0 3.2 0.00 0.00 0.00 56 1013.9
20260906153238 33 27 0.0 3.2 0.00 0.00 0.00 59 1013.7
20260906153135 33 248 0.0 3.2 0.00 0.00 0.00 58 1013.8
20260906153130 33 20 0.0 4.8 0.00 0.00 0.00 58 1013.7
20260906151629 33 336 0.0 4.8 0.00 0.00 0.00 59 1013.6
20260906151128 33 48 0.0 3.2 0.00 0.00 0.00 59 1013.5
20260906150626 33 23 0.0 1.6 0.00 0.00 0.00 60 1013.5
20260906150125 33 359 0.0 4.8 0.00 0.00 0.00 61 1013.5
20260906145624 33 0 0.0 4.8 0.00 0.00 0.00 61 1013.5
20260906145125 32 28 0.0 1.6 0.00 0.00 0.00 63 1013.4
20260906144624 32 44 0.0 1.6 0.00 0.00 0.00 62 1013.4
20260906144122 32 91 0.0 1.6 0.00 0.00 0.00 64 1013.4
20260906143626 32 39 0.0 3.2 0.00 0.00 0.00 65 1013.5
20260906143622 32 38 0.0 3.2 0.00 0.00 0.00 63 1013.4
20260906142622 32 328 0.0 3.2 0.00 0.00 0.00 64 1013.4
20260906142124 32 233 0.0 3.2 0.00 0.00 0.00 64 1013.6
20260906141622 32 233 0.0 3.2 0.00 0.00 0.00 63 1013.5
20260906141123 32 217 0.0 1.6 0.00 0.00 0.00 65 1013.5
20260906140622 31 217 0.0 1.6 0.00 0.00 0.00 66 1013.4
20260906140122 31 229 0.0 1.6 0.00 0.00 0.00 67 1013.4
20260906135627 30 229 0.0 0.0 0.00 0.00 0.00 70 1013.5
20260906135623 31 229 0.0 0.0 0.00 0.00 0.00 69 1013.4
20260906134628 -17 0.0 0.0 0.00 0.00 0.00 1013.4
20260906134622 30 229 0.0 0.0 0.00 0.00 0.00 72 1013.4
20260906133621 -17 0.0 0.0 0.00 0.00 0.00 1013.4
20260906133030 -17 0.0 0.0 0.00 0.00 0.00 1013.3
20260906132526 -17 0.0 0.0 0.00 0.00 0.00 1013.4
20260906132029 -17 0.0 0.0 0.00 0.00 0.00 1013.4
20260906132025 -17 0.0 0.0 0.00 0.00 0.00 1013.4
20260906130927 -17 0.0 0.0 0.00 0.00 0.00 1013.4
20260906130427 -17 0.0 0.0 0.00 0.00 0.00 1013.5
20260906125929 -17 0.0 0.0 0.00 0.00 0.00 1013.4
20260906125427 -17 0.0 0.0 0.00 0.00 0.00 1013.3
20260906124928 -17 0.0 0.0 0.00 0.00 0.00 1013.2
20260906124427 -17 0.0 0.0 0.00 0.00 0.00 1013.3
20260906123926 -17 0.0 0.0 0.00 0.00 0.00 1013.2
20260906123431 -17 0.0 0.0 0.00 0.00 0.00 1013.2
20260906123425 -17 0.0 0.0 0.00 0.00 0.00 1013.1
20260906122420 -17 0.0 0.0 0.00 0.00 0.00 1013.1
20260906121915 -17 0.0 0.0 0.00 0.00 0.00 1013.0
20260906121334 -17 0.0 0.0 0.00 0.00 0.00 1013.0
20260906121328 -17 0.0 0.0 0.00 0.00 0.00 1012.9
20260906120328 -17 0.0 0.0 0.00 0.00 0.00 1012.9
20260906115829 -17 0.0 0.0 0.00 0.00 0.00 1012.8
20260906115329 -17 0.0 0.0 0.00 0.00 0.00 1012.7
20260906114824 -17 225 0.0 0.0 0.00 0.00 0.00 1012.7
20260906114230 25 225 0.0 0.0 0.00 0.00 0.00 82 1012.6
20260906113729 25 225 0.0 0.0 0.00 0.00 0.00 82 1012.6
20260906113232 25 229 0.0 0.0 0.00 0.00 0.00 82 1012.6
20260906113228 25 229 0.0 0.0 0.00 0.00 0.00 82 1012.6
20260906112232 25 229 0.0 0.0 0.00 0.00 0.00 82 1012.5
20260906112227 25 229 0.0 0.0 0.00 0.00 0.00 83 1012.5
20260906111225 25 229 0.0 0.0 0.00 0.00 0.00 82 1012.4
20260906110726 25 229 0.0 0.0 0.00 0.00 0.00 82 1012.4
20260906110226 25 229 0.0 0.0 0.00 0.00 0.00 82 1012.4
20260906105728 25 229 0.0 0.0 0.00 0.00 0.00 82 1012.3
20260906105724 25 229 0.0 0.0 0.00 0.00 0.00 82 1012.3
20260906104727 25 229 0.0 0.0 0.00 0.00 0.00 83 1012.4
20260906104723 25 229 0.0 0.0 0.00 0.00 0.00 83 1012.4
20260906103724 25 229 0.0 0.0 0.00 0.00 0.00 83 1012.4
20260906103229 25 229 0.0 0.0 0.00 0.00 0.00 83 1012.3
20260906103223 25 229 0.0 0.0 0.00 0.00 0.00 83 1012.4
20260906102224 25 229 0.0 0.0 0.00 0.00 0.00 82 1012.2
20260906101723 25 229 0.0 0.0 0.00 0.00 0.00 82 1012.1
20260906101223 25 229 0.0 0.0 0.00 0.00 0.00 82 1012.1
20260906100724 26 229 0.0 0.0 0.00 0.00 0.00 81 1012.1
20260906100223 26 229 0.0 0.0 0.00 0.00 0.00 81 1012.0
20260906095724 26 229 0.0 0.0 0.00 0.00 0.00 80 1012.0
20260906095223 26 229 0.0 0.0 0.00 0.00 0.00 80 1011.9
20260906094723 26 229 0.0 0.0 0.00 0.00 0.00 79 1011.8
20260906094228 26 229 0.0 0.0 0.00 0.00 0.00 78 1011.8
20260906094224 26 229 0.0 0.0 0.00 0.00 0.00 79 1011.8
20260906093838 26 229 0.0 0.0 0.00 0.00 0.00 78 1011.7
20260906092729 27 229 0.0 0.0 0.00 0.00 0.00 78 1011.6
20260906092723 26 229 0.0 0.0 0.00 0.00 0.00 78 1011.6
20260906091729 27 229 0.0 0.0 0.00 0.00 0.00 77 1011.6
20260906091724 27 229 0.0 0.0 0.00 0.00 0.00 78 1011.6
20260906090724 27 229 0.0 0.0 0.00 0.00 0.00 77 1011.6
20260906090224 27 229 0.0 0.0 0.00 0.00 0.00 77 1011.5
20260906085723 27 229 0.0 0.0 0.00 0.00 0.00 76 1011.5
20260906085225 27 229 0.0 0.0 0.00 0.00 0.00 76 1011.5
20260906084723 27 265 0.0 1.6 0.00 0.00 0.00 76 1011.6
20260906084223 27 265 0.0 1.6 0.00 0.00 0.00 76 1011.6
20260906083723 27 217 0.0 4.8 0.00 0.00 0.00 75 1011.6
20260906083224 27 217 0.0 4.8 0.00 0.00 0.00 75 1011.5
20260906082723 27 235 0.0 1.6 0.00 0.00 0.00 75 1011.6
20260906082221 27 248 0.0 4.8 0.00 0.00 0.00 75 1011.7
20260906081727 27 220 0.0 3.2 0.00 0.00 0.00 75 1011.6
20260906081722 27 209 0.0 4.8 0.00 0.00 0.00 75 1011.6
20260906081335 27 226 0.0 4.8 0.00 0.00 0.00 75 1011.6
20260906080218 27 210 0.0 4.8 0.00 0.00 0.00 75 1011.6
20260906075717 27 208 0.0 3.2 0.00 0.00 0.00 75 1011.6
20260906075219 28 225 0.0 0.0 0.00 0.00 0.00 75 1011.6
20260906074715 28 225 0.0 0.0 0.00 0.00 0.00 75 1011.7
20260906074214 28 225 0.0 0.0 0.00 0.00 0.00 75 1011.8
20260906073711 28 225 0.0 3.2 0.00 0.00 0.00 74 1011.9
20260906073214 28 243 0.0 1.6 0.00 0.00 0.00 74 1012.0
20260906073209 28 225 0.0 3.2 0.00 0.00 0.00 74 1011.9
20260906072209 28 243 0.0 1.6 0.00 0.00 0.00 73 1011.9
20260906071707 28 243 0.0 0.0 0.00 0.00 0.00 74 1011.9
20260906071209 28 243 0.0 0.0 0.00 0.00 0.00 73 1011.8
20260906070708 28 243 0.0 0.0 0.00 0.00 0.00 73 1011.9
20260906070208 28 243 0.0 0.0 0.00 0.00 0.00 73 1011.9
20260906065707 28 243 0.0 0.0 0.00 0.00 0.00 73 1011.8
20260906065207 28 243 0.0 1.6 0.00 0.00 0.00 73 1011.9
20260906064705 28 243 0.0 1.6 0.00 0.00 0.00 72 1012.0
20260906064205 28 243 0.0 0.0 0.00 0.00 0.00 72 1012.0
20260906063705 28 243 0.0 6.4 0.00 0.00 0.00 71 1011.9
20260906063205 28 243 0.0 6.4 0.00 0.00 0.00 71 1011.9
20260906062703 28 249 0.0 4.8 0.00 0.00 0.00 71 1011.9
20260906062209 28 226 0.0 6.4 0.00 0.00 0.00 71 1011.9
20260906062203 28 226 0.0 6.4 0.00 0.00 0.00 71 1012.0
20260906061817 29 224 0.0 1.6 0.00 0.00 0.00 71 1012.0
20260906060702 29 221 0.0 1.6 0.00 0.00 0.00 71 1012.1
20260906060201 29 222 0.0 1.6 0.00 0.00 0.00 71 1012.2
20260906055659 29 236 0.0 0.0 0.00 0.00 0.00 70 1012.2
20260906055159 29 248 0.0 0.0 0.00 0.00 0.00 70 1012.1
20260906054700 29 248 0.0 1.6 0.00 0.00 0.00 70 1012.0
20260906054201 29 248 0.0 1.6 0.00 0.00 0.00 70 1012.0
20260906053704 29 214 0.0 3.2 0.00 0.00 0.00 69 1012.0
20260906053700 29 248 0.0 3.2 0.00 0.00 0.00 69 1011.9
20260906053316 29 220 0.0 3.2 0.00 0.00 0.00 68 1012.0
20260906052159 30 223 0.0 8.0 0.00 0.00 0.00 68 1012.0
20260906051700 30 231 0.0 8.0 0.00 0.00 0.00 68 1012.1
20260906051202 30 243 0.0 1.6 0.00 0.00 0.00 67 1012.2
20260906051157 30 222 0.0 3.2 0.00 0.00 0.00 68 1012.2
20260906050157 30 243 0.0 3.2 0.00 0.00 0.00 67 1012.1
20260906045657 30 224 0.0 3.2 0.00 0.00 0.00 67 1012.1
20260906045201 30 266 0.0 6.4 0.00 0.00 0.00 67 1012.1
20260906045157 30 244 0.0 6.4 0.00 0.00 0.00 67 1012.1
20260906044313 30 209 0.0 3.2 0.00 0.00 0.00 65 1011.9
20260906044157 30 224 0.0 1.6 0.00 0.00 0.00 66 1012.1
20260906043701 30 209 0.0 0.0 0.00 0.00 0.00 66 1012.0
20260906043657 30 273 0.0 1.6 0.00 0.00 0.00 66 1012.0
20260906042200 30 238 0.0 1.6 0.00 0.00 0.00 64 1011.8
20260906042155 30 210 0.0 3.2 0.00 0.00 0.00 65 1011.8
20260906041155 30 221 0.0 0.0 0.00 0.00 0.00 64 1011.9
20260906040656 30 221 0.0 3.2 0.00 0.00 0.00 64 1011.8
20260906040156 30 286 0.0 3.2 0.00 0.00 0.00 64 1011.8
20260906035655 30 150 0.0 4.8 0.00 0.00 0.00 63 1011.9
20260906035200 31 229 0.0 6.4 0.00 0.00 0.00 62 1011.9
20260906035156 30 188 0.0 6.4 0.00 0.00 0.00 63 1011.9
20260906034201 31 233 0.0 3.2 0.00 0.00 0.00 62 1011.9
20260906034156 31 236 0.0 1.6 0.00 0.00 0.00 62 1011.9
20260906033156 31 216 0.0 3.2 0.00 0.00 0.00 61 1011.9
20260906032653 31 199 0.0 4.8 0.00 0.00 0.00 61 1012.0
20260906032151 31 46 0.0 4.8 0.00 0.00 0.00 61 1012.0
20260906031651 31 234 0.0 4.8 0.00 0.00 0.00 61 1011.9
20260906031151 31 224 0.0 4.8 0.00 0.00 0.00 60 1011.9
20260906030651 31 145 0.0 4.8 0.00 0.00 0.00 60 1012.0
20260906030155 31 251 0.0 3.2 0.00 0.00 0.00 59 1011.9
20260906030151 31 224 0.0 3.2 0.00 0.00 0.00 60 1012.0
20260906025804 31 226 0.0 4.8 0.00 0.00 0.00 59 1011.9
20260906024650 31 132 0.0 6.4 0.00 0.00 0.00 58 1011.8
20260906024149 31 37 0.0 6.4 0.00 0.00 0.00 59 1011.7
20260906023649 31 141 0.0 4.8 0.00 0.00 0.00 58 1011.7
20260906023149 31 169 0.0 4.8 0.00 0.00 0.00 58 1011.6
20260906022649 31 46 0.0 4.8 0.00 0.00 0.00 57 1011.6
20260906022148 32 207 0.0 3.2 0.00 0.00 0.00 57 1011.5
20260906021650 32 297 0.0 4.8 0.00 0.00 0.00 56 1011.4
20260906021149 32 292 0.0 4.8 0.00 0.00 0.00 56 1011.3
20260906020649 32 248 0.0 6.4 0.00 0.00 0.00 55 1011.3
20260906020149 32 144 0.0 6.4 0.00 0.00 0.00 55 1011.1
20260906015648 32 11 0.0 4.8 0.00 0.00 0.00 55 1011.2
20260906015148 32 37 1.6 8.0 0.00 0.00 0.00 54 1011.0
20260906014647 32 321 1.6 8.0 0.00 0.00 0.00 54 1010.8
20260906014147 33 346 1.6 9.7 0.00 0.00 0.00 53 1010.7
20260906013648 33 20 1.6 11.3 0.00 0.00 0.00 52 1010.6
20260906013147 33 342 1.6 11.3 0.00 0.00 0.00 52 1010.5
20260906012646 33 352 1.6 9.7 0.00 0.00 0.00 51 1010.4
20260906012147 33 146 1.6 6.4 0.00 0.00 0.00 50 1010.3
20260906011647 33 167 0.0 6.4 0.00 0.00 0.00 49 1010.1
20260906011152 34 292 0.0 0.0 0.00 0.00 0.00 45 1009.9
20260906011148 33 339 0.0 4.8 0.00 0.00 0.00 46 1010.1
20260906010150 34 292 0.0 0.0 0.00 0.00 0.00 44 1009.9
20260906010145 34 292 0.0 0.0 0.00 0.00 0.00 45 1009.9
20260906005145 35 292 0.0 0.0 0.00 0.00 0.00 43 1010.0
20260906004646 35 18 0.0 0.0 0.00 0.00 0.00 42 1009.9
20260906004145 35 18 0.0 0.0 0.00 0.00 0.00 42 1009.9
20260906003644 35 18 0.0 0.0 0.00 0.00 0.00 42 1009.9
20260906003145 36 21 0.0 1.6 0.00 0.00 0.00 41 1009.9
20260906002645 36 21 0.0 1.6 0.00 0.00 0.00 40 1009.8
20260906002149 36 15 0.0 1.6 0.00 0.00 0.00 39 1009.9
20260906002145 36 16 0.0 1.6 0.00 0.00 0.00 39 1009.9
20260906001143 37 320 0.0 1.6 0.00 0.00 0.00 37 1009.9
20260906000648 38 2 0.0 1.6 0.00 0.00 0.00 35 1009.7
20260906000643 37 2 0.0 1.6 0.00 0.00 0.00 36 1009.8
20260905235644 38 2 0.0 1.6 0.00 0.00 0.00 35 1009.8
20260905235144 38 359 0.0 1.6 0.00 0.00 0.00 35 1009.7
20260905234643 38 295 0.0 3.2 0.00 0.00 0.00 36 1009.7
20260905234148 38 25 0.0 3.2 0.00 0.00 0.00 36 1009.7
20260905234143 37 353 0.0 3.2 0.00 0.00 0.00 37 1009.6
20260905233141 38 68 0.0 3.2 0.00 0.00 0.00 35 1009.6
20260905232642 38 298 0.0 1.6 0.00 0.00 0.00 36 1009.7
20260905232142 38 248 0.0 1.6 0.00 0.00 0.00 35 1009.7
20260905231638 38 18 0.0 0.0 0.00 0.00 0.00 36 1009.7
20260905231140 38 18 0.0 0.0 0.00 0.00 0.00 36 1009.7